www.pogodaiklimat.ru

Погода и климат >> Архив погоды >> Россия >> Красноярский край >> Снежногорск


ПОГОДА в Снежногорске

  • Прогноз погоды в Снежногорске
  • Монитор погоды в Снежногорске

АРХИВ ПОГОДЫ в Снежногорске

Время (UTC), дата Ветер
(напр.,м/с)
 
Видим.   Явления Облачность Т
(С)
Тd
(С)
f
(%)
Тe
(С)
Тes
(С)
Комфортность P
(гПа)
Po
(гПа)
Тmin
(С)
Tmax
(С)
R
(мм)
R24
(мм)
S
(см)
06 19.08 СВ 3 20 км 6/0
[Ac lent]
+18.4 +15.7 84 +19 +22 1018.0 1006.9
09 19.08 СВ 3 20 км 6/0
[Ac lent]
+20.0 +16.5 80 +23 +25 комфорт 1018.2 1007.2
12 19.08 В 2 20 км 6/0
[Ac lent]
+18.4 +15.3 82 +19 +20 1018.8 1000.7 +20.0
15 19.08 СВ 2 20 км 6/0
[Ac lent]
+16.4 +15.6 95 +16 +16 1019.8 1008.6
18 19.08 20 км 8/0
[Ac lent]
+13.3 +11.7 90 1020.7 1009.4
21 19.08 Ю 1 10 км 6/0 2000 м
[Ac lent]
+10.0 +9.4 96 +9 +9 1021.6 1010.2
00 20.08 З 2 4000 м 10/10 600 м
[Sc]
+10.9 +10.5 97 +9 +9 1022.2 1010.8 +10.2
03 20.08 СЗ 2 500 м туман 10/10 600 м
[Sc]
+12.4 +12.4 100 +11 +11 1022.5 1011.2
06 20.08 СЗ 1 20 км {туман} 3/0
[Ci fib]
+17.4 +15.0 86 +18 +26 1022.3 1011.2
09 20.08 С 1 20 км 3/0
[Ci fib]
+21.5 +15.0 66 +25 +30 комфорт 1021.9 1010.8
12 20.08 СЗ 2 20 км 3/0
[Ci fib]
+20.4 +13.4 64 +23 +24 комфорт 1021.8 1010.8 +22.4
15 20.08 З 1 20 км 3/0
[Ci fib]
+16.4 +14.7 90 +17 +17 1022.0 1010.8
18 20.08 СВ 1 20 км ясно +12.9 +12.7 99 +13 +13 1022.3 1011.0
21 20.08 В 1 10 км ясно +15.5 +15.1 97 +16 +16 1021.9 1010.7
00 21.08 В 2 20 км ясно +15.6 +15.2 97 +15 +16 1022.1 1010.9 +12.9
03 21.08 В 1 20 км ясно +16.9 +14.1 84 +18 +23 1022.1 1010.9
06 21.08 СВ 2 20 км ясно +18.6 +13.5 72 +20 +26 1021.6 1010.5
09 21.08 СВ 1 20 км 3/0
[Ci fib]
+20.5 +11.9 58 +24 +28 комфорт 1020.4 1009.4
12 21.08 СВ 1 20 км 3/0
[Ci fib]
+21.5 +12.3 56 +24 +25 комфорт 1019.7 1008.7 +21.5
15 21.08 СВ 1 20 км 4/0 2000 м
[Ac lent]
+18.6 +11.1 62 +20 +20 1019.1 1008.0
18 21.08 штиль 0 10 км 10/0 2000 м
[Ac lent]
+16.0 +13.3 84 +16 +16 1018.4 1007.3
21 21.08 штиль 0 10 км 10/0 2000 м
[Ac lent]
+13.4 +13.2 99 +13 +13 1017.8 1006.5
00 22.08 штиль 0 20 км 10/0
[Ci fib]
+11.0 +11.0 100 +10 +11 1017.3 1005.9 +11.0
03 22.08 штиль 0 20 км 6/0
[Ci fib]
+17.1 +12.4 74 +17 +22 1016.4 1005.3
06 22.08 В 1 20 км 6/0
[Cc]
+20.0 +11.8 59 +23 +29 комфорт 1015.2 1004.2
09 22.08 Ю 1 20 км 9/0
[Ci]
+23.6 +13.5 53 +26 +30 жарко 1013.7 1002.9
12 22.08 Ю 2 20 км 10/0 2000 м
[Ac trans Ci]
+21.2 +12.8 59 +23 +24 комфорт 1013.6 1002.6 +23.6
15 22.08 ЮЗ 1 20 км 9/0 2000 м
[Ac trans]
+18.6 +11.9 65 +20 +20 1012.9 1001.9
18 22.08 ЮВ 1 10 км 10/0 2000 м
[Ac und]
+17.0 +13.4 79 +18 +18 1012.4 1001.3
21 22.08 Ю 1 10 км 10/0 2000 м
[Ac und]
+15.6 +13.2 86 +16 +16 1011.3 1000.2
00 23.08 Ю 1 20 км 9/6 2000 м
[Cu Sc Ac trans]
+14.8 +11.7 82 +15 +15 1011.1 999.9 +14.7
03 23.08 Ю 1 20 км 8/4 600 м
[Cu Sc Ci sp]
+15.5 +13.1 86 +16 +18 1010.3 999.2
06 23.08 Ю 1 20 км 10/8 600 м
[Cb cap Ci sp]
+17.5 +13.8 79 +19 +20 1009.6 998.6
09 23.08 Ю 1 20 км 10/4 600 м
[Cu Sc Ac trans Ci sp]
+19.5 +12.8 65 +22 +24 комфорт 1008.4 997.5
12 23.08 Ю 1 20 км в посл. час гроза {ливн. осадки} 9/6 600 м
[Cb cap Ci sp]
+18.0 +14.3 79 +19 +19 1008.0 997.1 +19.9 0.4
15 23.08 ЮЗ 1 20 км {гроза} 3/3 600 м
[Sc]
+15.8 +12.5 81 +16 +16 1007.9 996.9
18 23.08 ЮЗ 1 10 км {гроза} 3/0
[Ci fib]
+14.1 +11.9 87 +14 +14 1007.5 996.4
21 23.08 ЮЗ 1 10 км 10/10 600 м
[Sc]
+14.6 +13.9 96 +15 +15 1007.0 995.9
00 24.08 ЮЗ 1 20 км 8/4 600 м
[Sc Ac trans Ci sp]
+14.5 +14.6 100 +15 +15 1006.5 995.4 +12.8
03 24.08 Ю 1 20 км 8/5 600 м
[Sc Ac lent]
+14.7 +14.2 97 +15 +16 1006.8 995.7
06 24.08 штиль 0 20 км 8/0 2000 м
[Sc Ac lent]
+17.0 +14.0 82 +17 +20 1006.5 995.5
09 24.08 Ю 1 20 км 3/3
[Sc]
+18.9 +13.0 69 +21 +24 комфорт 1005.8 994.9
12 24.08 ЮВ 1 20 км 10/0 2000 м
[Ac und]
+18.5 +13.8 74 +20 +20 1005.2 994.3 +18.9
15 24.08 ЮВ 1 20 км 10/0
[Ac und]
+17.5 +16.0 91 +19 +19 1004.8 993.9
18 24.08 ЮВ 2 10 км 10/0
[Ac und]
+15.3 +12.2 82 +15 +15 1004.0 993.0
21 24.08 Ю 2 10 км 10/0
[Ac und]
+16.4 +13.5 83 +17 +17 1003.5 992.3
00 25.08 В 2 20 км 10/10 600 м
[Sc]
+14.8 +11.4 80 +14 +14 1002.4 991.4 +18.5
03 25.08 ЮВ 2 20 км 10/10 600 м
[Sc]
+16.0 +13.3 84 +16 +16 1002.6 991.6
06 25.08 Ю 3 20 км 8/4 600 м
[Cu Sc Cc]
+17.5 +14.4 82 +18 +20 1002.7 991.8
09 25.08 ЮВ 1 20 км 9/8 600 м
[Sc Ac trans]
+18.4 +15.9 85 +20 +21 1002.2 991.3
12 25.08 ЮВ 1 20 км 9/4 600 м
[Sc Ac lent Ci fib]
+15.4 +13.2 87 +16 +16 1002.3 991.3 +18.9
15 25.08 ЮВ 2 20 км 9/6 600 м
[Sc Ci fib]
+15.5 +14.3 93 +15 +15 1002.4 991.4
18 25.08 В 1 10 км {ливн. осадки} 10/10 600 м
[Cb cap]
+14.6 +13.7 94 +15 +15 1002.0 991.0
21 25.08 Ю 1 10 км 9/9 600 м
[Sc]
+14.2 +13.4 95 +14 +14 1002.0 991.0
00 26.08 ЮЗ 2 20 км 10/10 600 м
[Sc]
+14.0 +12.7 92 +13 +13 1002.4 991.4 +13.9 0.0

 

Местоположение метеостанции Снежногорск (Красноярский край, Россия): широта 68.10 долгота 87.77 высота над уровнем моря 94 м.

В архиве по умолчанию представлена погода в Снежногорске за последнюю неделю. Архивные данные за месяц целиком и за предыдущие месяцы, начиная с января 2011 года, Вы можете получить, выбрав интересующий диапазон дат из раскрывающегося списка и нажав кнопку "Ввод!".


*Определитесь, кто Вы:
робот инопланетянин человек

Внимание! Время в таблицах - всемирное. Для получения местного времени необходимо прибавить поправку, которая равна 7 ч.

Смотрите также архив погоды в соседних городах и на ближайших метеорологических станциях:

Погода в Горбиачине (Красноярский край, Россия) (69 км)
Погода в Игарке (Красноярский край, Россия) (86 км)
Погода в Потапово (Красноярский край, Россия) (89 км)
Погода в Светлогорске (Красноярский край, Россия) (131 км)
Погода в Норильске (Красноярский край, Россия) (138 км)
Погода в Курейке (Красноярский край, Россия) (183 км)
Погода в Советской Речке (Красноярский край, Россия) (221 км)
Погода в Туруханске (Красноярский край, Россия) (258 км)
Погода в Агате (Эвенкия, Россия) (278 км)
Погода в Карауле (Красноярский край, Россия) (286 км)

Пояснения к столбцам:

Ветер - указаны скорость ветра в м/с - средняя за 10 мин, порывы в срок и между сроками (в фигурных скобках) и направление, откуда дует ветер: С - северный, СВ - северо-восточный, В - восточный, ЮВ - юго-восточный, Ю - южный, ЮЗ - юго-западный, З - западный, СЗ - северо-западный.
Видимость - горизонтальная дальность видимости в метрах или километрах. При видимости от 1 до 10 км при отсутствии осадков обычно наблюдается дымка, при ухудшении видимости до 1 км и менее - туман. В сухую погоду видимость может ухудшаться дымом, пылью или мглою.
Явления - указаны атмосферные явления, наблюдавшиеся в срок или в последний час перед сроком; фигурными скобками обозначены явления, наблюдавшиеся между сроками (за 1-3 часа до срока); квадратными скобками обозначены град или гололедные отложения с указанием их диаметра в мм.
Облачность - указаны через наклонную черту общая и нижняя облачность в баллах и высота нижней границы облаков в метрах; квадратными скобками обозначены формы облаков: Ci - перистые, Cs - перисто-слоистые, Cc - перисто-кучевые, Ac - высококучевые, As - высокослоистые, Sc - слоисто-кучевые, Ns - слоисто-дождевые, Cu - кучевые, Cb - кучево-дождевые. Подробнее классификацию облаков см. в Атласе облаков (PDF).
T - Температура воздуха - температура, измеренная на высоте 2 м над землей.
Td - Температура точки росы - температура, при понижении до которой содержащийся в воздухе водяной пар достигнет насыщения.
f - Относительная влажность воздуха - влажноcть воздуха, измеренная на высоте 2 м над землей.
Te - Эффективная температура - температура, которую ощущает одетый по сезону человек в тени. Характеристика душности погоды. При расчете учитывается влияние влажности воздуха и скорости ветра на теплоощущения человека.
Tes - Эффективная температура на солнце - температура, которую ощущает человек, с поправкой на солнечный нагрев. Характеристика знойности погоды. Зависит от высоты солнца над горизонтом, облачности и скорости ветра. Ночью, в пасмурную погоду, а также при ветре 12 м/с и более поправка равна нулю.
P - Атмосферное давление - приведенное к уровню моря атмосферное давление.
Po - Атмосферное давление - измеренное на уровне метеостанции атмосферное давление.
Tmin - Минимальная температура - минимум температуры воздуха на высоте 2 м над землей.
Tmax - Максимальная температура - максимум температуры воздуха на высоте 2 м над землей.
R - Количество осадков - Количество выпавших осадков за период времени, мм. При наведении курсора мыши на число - период времени, за который выпало указанное количество осадков.
R24 - Количество осадков - Количество выпавших осадков за 24 часа, мм.
S - Снежный покров - Высота снежного покрова, см. При наведении курсора мыши на число - состояние снежного покрова и степень покрытия местности в баллах.